Louisburg, NC

5:27 PM EDT on June 27, 2017 (GMT -0400)
Franklin County

Weather History for KLHZ - April, 2013

Change the Weather History Date:

Saturday, April 20, 2013

  Actual Average (KRDU) Record (KRDU)
Temperature  
Mean Temperature 52 °F -  
Max Temperature 60 °F 73 °F 93 °F (1896)
Min Temperature 44 °F 47 °F 28 °F (1983)
Degree Days  
Heating Degree Days 13    
Growing Degree Days 2 (Base 50)    
Moisture  
Dew Point 36 °F    
Average Humidity 55    
Maximum Humidity 100    
Minimum Humidity 31    
Precipitation  
Precipitation 0.08 in - - ()
Sea Level Pressure  
Sea Level Pressure 30.10 in    
Wind  
Wind Speed 4 mph (NW)    
Max Wind Speed 9 mph    
Max Gust Speed 16 mph    
Visibility 10 miles    
Events Rain    
Averages and records for this station are not official NWS values.
T = Trace of Precipitation, MM = Missing Value Source: NWS Daily Summary

Daily Weather History Graph

Daily Weather History Graph

Search for Another Location

Airport or City:

Trip Planner

Search our weather history database for the weather conditions in past years. The results will help you decide how hot, cold, wet, or windy it might be!

Date:

Astronomy

Apr. 20, 2013 Rise Set
Actual Time 6:33 AM EDT 7:51 PM EDT
Civil Twilight 6:06 AM EDT 8:18 PM EDT
Nautical Twilight 5:34 AM EDT 8:50 PM EDT
Astronomical Twilight 5:01 AM EDT 9:23 PM EDT
Moon 2:42 PM EDT (4/20) 3:11 AM EDT (4/20)
Length of Visible Light 14h 11m
Length of Day
13h 17m
Waxing Gibbous, 71% of the Moon is Illuminated
Apr 20
Waxing Gibbous
Apr 25
Full
May 2
Last Quarter
May 9
New
May 18
First Quarter

Hourly Weather History & Observations

Time (EDT) Temp. Windchill Dew Point Humidity Pressure Visibility Wind Dir Wind Speed Gust Speed Precip Events Conditions
12:15 AM - - - N/A% 29.84 in 7.0 mi SSW 5.8 mph - 0.01 in Rain Light Rain
12:35 AM - - - N/A% 29.85 in 10.0 mi SSW 9.2 mph - 0.02 in Rain Light Rain
12:55 AM - - - N/A% 29.85 in 10.0 mi SSW 3.5 mph - 0.02 in Rain Light Rain
1:15 AM - - - N/A% 29.86 in 10.0 mi SW 4.6 mph - 0.01 in Rain Light Rain
1:35 AM - - - N/A% 29.87 in 7.0 mi WSW 4.6 mph - 0.03 in Rain Light Rain
1:55 AM 60.8 °F - 60.8 °F 100% 29.88 in 10.0 mi West 4.6 mph - 0.04 in Rain Light Rain
2:35 AM - - - N/A% 29.88 in 10.0 mi Calm Calm - 0.01 in Rain Light Rain
2:55 AM - - - N/A% 29.90 in 10.0 mi Calm Calm - 0.02 in Rain Light Rain
3:15 AM - - - N/A% 29.91 in 10.0 mi Calm Calm - N/A   Overcast
3:35 AM - - - N/A% 29.92 in 10.0 mi West 3.5 mph - N/A   Overcast
3:55 AM - - - N/A% 29.93 in 10.0 mi Calm Calm - N/A   Overcast
4:15 AM 51.8 °F - 51.8 °F 100% 29.95 in 10.0 mi NW 6.9 mph - N/A   Overcast
4:35 AM 51.8 °F - 44.6 °F 76% 29.95 in 10.0 mi NW 5.8 mph 16.1 mph N/A   Overcast
4:55 AM 50.0 °F - 42.8 °F 76% 29.96 in 10.0 mi NNW 6.9 mph - N/A   Overcast
5:15 AM 50.0 °F - 41.0 °F 71% 29.97 in 10.0 mi NW 6.9 mph - N/A   Overcast
5:35 AM 50.0 °F - 41.0 °F 71% 29.97 in 10.0 mi NNW 5.8 mph - N/A   Overcast
5:55 AM 50.0 °F - 41.0 °F 71% 29.99 in 10.0 mi NW 4.6 mph - N/A   Overcast
6:15 AM 50.0 °F - 39.2 °F 66% 30.01 in 10.0 mi WNW 4.6 mph - N/A   Overcast
6:35 AM 50.0 °F - 37.4 °F 62% 30.02 in 10.0 mi NW 4.6 mph - N/A   Mostly Cloudy
6:55 AM 48.2 °F - 37.4 °F 66% 30.02 in 10.0 mi NNW 3.5 mph - N/A   Scattered Clouds
7:15 AM 48.2 °F - 37.4 °F 66% 30.03 in 10.0 mi Calm Calm - N/A   Clear
7:35 AM 48.2 °F - 37.4 °F 66% 30.06 in 10.0 mi NW 4.6 mph - N/A   Clear
7:55 AM 48.2 °F - 37.4 °F 66% 30.08 in 10.0 mi NW 3.5 mph - N/A   Clear
8:15 AM 48.2 °F - 37.4 °F 66% 30.08 in 10.0 mi Calm Calm - N/A   Clear
8:35 AM 48.2 °F - 37.4 °F 66% 30.09 in 10.0 mi NNW 4.6 mph - N/A   Clear
8:55 AM 50.0 °F - 37.4 °F 62% 30.10 in 10.0 mi NW 4.6 mph - N/A   Clear
9:15 AM 50.0 °F - 37.4 °F 62% 30.11 in 10.0 mi NW 5.8 mph - N/A   Clear
9:35 AM 50.0 °F - 37.4 °F 62% 30.11 in 10.0 mi NNW 8.1 mph - N/A   Clear
9:55 AM 50.0 °F - 35.6 °F 58% 30.13 in 10.0 mi NW 8.1 mph - N/A   Clear
10:15 AM 50.0 °F - 33.8 °F 54% 30.13 in 10.0 mi NNW 4.6 mph - N/A   Clear
10:35 AM 51.8 °F - 33.8 °F 50% 30.14 in 10.0 mi NNW 5.8 mph - N/A   Clear
10:55 AM 51.8 °F - 32.0 °F 47% 30.14 in 10.0 mi NNW 4.6 mph - N/A   Clear
11:15 AM 51.8 °F - 32.0 °F 47% 30.15 in 10.0 mi North 5.8 mph - N/A   Clear
11:35 AM 51.8 °F - 32.0 °F 47% 30.15 in 10.0 mi NW 5.8 mph - N/A   Clear
11:55 AM 55.4 °F - 32.0 °F 41% 30.15 in 10.0 mi WNW 9.2 mph - N/A   Clear
12:15 PM 53.6 °F - 32.0 °F 44% 30.15 in 10.0 mi NNW 8.1 mph - N/A   Clear
12:35 PM 53.6 °F - 32.0 °F 44% 30.14 in 10.0 mi NNW 8.1 mph - N/A   Clear
12:55 PM 55.4 °F - 30.2 °F 38% 30.15 in 10.0 mi NNW 6.9 mph - N/A   Clear
1:15 PM 55.4 °F - 28.4 °F 36% 30.15 in 10.0 mi NNW 6.9 mph - N/A   Clear
1:35 PM 55.4 °F - 32.0 °F 41% 30.14 in 10.0 mi NW 6.9 mph - N/A   Clear
1:55 PM 55.4 °F - 30.2 °F 38% 30.14 in 10.0 mi North 4.6 mph - N/A   Clear
2:15 PM 57.2 °F - 32.0 °F 38% 30.15 in 10.0 mi NNE 3.5 mph - N/A   Clear
2:35 PM 59.0 °F - 30.2 °F 34% 30.14 in 10.0 mi Calm Calm - N/A   Clear
2:55 PM 59.0 °F - 32.0 °F 36% 30.14 in 10.0 mi North 6.9 mph - N/A   Clear
3:15 PM 59.0 °F - 32.0 °F 36% 30.13 in 10.0 mi West 5.8 mph - N/A   Clear
3:35 PM 60.8 °F - 32.0 °F 34% 30.13 in 10.0 mi NW 4.6 mph - N/A   Clear
3:55 PM 60.8 °F - 32.0 °F 34% 30.13 in 10.0 mi NNE 5.8 mph - N/A   Clear
4:15 PM 60.8 °F - 30.2 °F 31% 30.12 in 10.0 mi WNW 6.9 mph - N/A   Clear
4:35 PM 60.8 °F - 32.0 °F 34% 30.13 in 10.0 mi North 5.8 mph - N/A   Clear
4:55 PM 60.8 °F - 32.0 °F 34% 30.13 in 10.0 mi Calm Calm - N/A   Clear
5:15 PM 60.8 °F - 32.0 °F 34% 30.13 in 10.0 mi NNE 3.5 mph - N/A   Clear
5:35 PM 60.8 °F - 30.2 °F 31% 30.14 in 10.0 mi NNW 5.8 mph - N/A   Clear
5:55 PM 60.8 °F - 30.2 °F 31% 30.15 in 10.0 mi NW 6.9 mph - N/A   Clear
6:15 PM 60.8 °F - 30.2 °F 31% 30.16 in 10.0 mi NW 3.5 mph - N/A   Clear
6:35 PM 59.0 °F - 32.0 °F 36% 30.17 in 10.0 mi Calm Calm - N/A   Clear
6:55 PM 60.8 °F - 30.2 °F 31% 30.17 in 10.0 mi Calm Calm - N/A   Clear
7:15 PM 59.0 °F - 32.0 °F 36% 30.16 in 10.0 mi Calm Calm - N/A   Clear
7:35 PM 57.2 °F - 33.8 °F 41% 30.17 in 10.0 mi Calm Calm - N/A   Clear
7:55 PM 53.6 °F - 37.4 °F 54% 30.19 in 10.0 mi Calm Calm - N/A   Clear
8:15 PM 50.0 °F - 39.2 °F 66% 30.21 in 10.0 mi Calm Calm - N/A   Clear
8:35 PM 48.2 °F - 39.2 °F 71% 30.22 in 10.0 mi Calm Calm - N/A   Clear
8:55 PM 46.4 °F - 39.2 °F 76% 30.24 in 10.0 mi Calm Calm - N/A   Clear
9:15 PM 44.6 °F - 39.2 °F 81% 30.25 in 10.0 mi Calm Calm - N/A   Clear
9:35 PM 44.6 °F - 37.4 °F 76% 30.25 in 10.0 mi Calm Calm - N/A   Clear
9:55 PM 44.6 °F 43.1 °F 39.2 °F 81% 30.26 in 10.0 mi SSE 3.5 mph - N/A   Clear
10:15 PM 44.6 °F 43.1 °F 44.6 °F 100% 30.27 in 10.0 mi South 3.5 mph - N/A   Clear
10:35 PM 44.6 °F - 44.6 °F 100% 30.27 in 10.0 mi Calm Calm - N/A   Clear
10:55 PM - - - N/A% 30.28 in 10.0 mi Calm Calm - N/A   Clear
11:15 PM - - - N/A% 30.28 in 10.0 mi Calm Calm - N/A   Clear
11:35 PM - - - N/A% 30.28 in 10.0 mi Calm Calm - N/A   Clear
11:55 PM - - - N/A% 30.28 in 10.0 mi Calm Calm - N/A   Clear